Regional Weather Roundup
Issued by NWS Upton, NY

Current Version | Previous Version | Graphics & Text | Print | Product List | Glossary Off
Versions: 1 2 3 4 5 6 7 8 9 10 11 12 13 14 15 16 17 18 19 20 21 22 23 24 25 26 27 28 29 30 31 32 33 34 35 36 37 38 39 40 41 42 43 44 45 46 47 48 49 50

000
ASUS41 KOKX 010805
RWROKX

REGIONAL WEATHER ROUNDUP
NATIONAL WEATHER SERVICE NEW YORK NY
300 AM EST SUN FEB 01 2015

NOTE: "FAIR" INDICATES FEW OR NO CLOUDS BELOW 12,000 FEET WITH NO
SIGNIFICANT WEATHER AND/OR OBSTRUCTIONS TO VISIBILITY.

NYZ071-072-176-178-NJZ106-104-010900-
NEW YORK CITY METRO AREA


CITY           SKY/WX    TMP DP  RH WIND       PRES   REMARKS
CENTRAL PARK   CLEAR     22   6  50 VRB3      30.21S
LAGUARDIA APRT PTCLDY    23   8  52 W6        30.20S WCI  16
KENNEDY INTL   PTCLDY    22   8  55 W10       30.22S WCI  11
NEWARK/LIBERTY PTCLDY    18   7  62 SW7       30.21F WCI   9
BRNX BOT. GARD   N/A    N/A N/A N/A W7        30.19F
TETERBORO      PTCLDY    19   5  54 CALM      30.21S
$$

NYZ177-179-078>081-010900-
LONG ISLAND NEW YORK

CITY           SKY/WX    TMP DP  RH WIND       PRES   REMARKS
FARMINGDALE    CLEAR     18   7  62 NW5       30.19S WCI  11
ISLIP          CLEAR     14   3  61 CALM      30.17S
SHIRLEY        CLEAR     15   5  64 W9        30.19S WCI   3
WESTHAMPTON    CLEAR      2  -7  66 CALM      30.20R
MONTAUK POINT    N/A     22  11  62 W15G24    30.16S WCI   9
$$

NYZ052-065-067-010900-
HUDSON VALLEY

CITY           SKY/WX    TMP DP  RH WIND       PRES   REMARKS
WHITE PLAINS   CLEAR     17   6  62 W5        30.14S WCI  10
NEWBURGH       NOT AVBL
MONTGOMERY     CLOUDY    17   7  64 SW15      30.15S WCI   2
POUGHKEEPSIE   CLOUDY    11   2  67 CALM      30.16S
ALBANY         FLURRIES  14   7  73 CALM      30.13F
$$

NJZ001-105-106-008-010-013-015-019>022-104-010900-
NEW JERSEY

CITY           SKY/WX    TMP DP  RH WIND       PRES   REMARKS
NEWARK/LIBERTY PTCLDY    18   7  62 SW7       30.21F WCI   9
TETERBORO      PTCLDY    19   5  54 CALM      30.21S
CALDWELL       PTCLDY    15   4  61 SW3       30.20S
MORRISTOWN     MOCLDY    12   7  79 CALM      30.20F
SOMERVILLE     MOCLDY     8   3  80 CALM      30.21S
SUSSEX         CLOUDY    10   3  73 CALM      30.16F
ANDOVER          N/A     11   5  77 S3        30.17S
TRENTON        MOCLDY    16   6  65 CALM      30.22S
MILLVILLE      CLEAR     13   9  84 CALM      30.26S
ATLANTIC CITY  CLEAR     23  10  57 W9        30.25R WCI  13
WRIGHTSTOWN    CLEAR     17  10  72 W5        30.22R WCI  10
TOMS RIVER     CLEAR      9   3  78 CALM      30.22S
BELMAR         CLEAR     18   3  53 W6        30.21S WCI   9
$$

PAZ047>061-062-071-010900-
EASTERN PENNSYLVANIA

CITY           SKY/WX    TMP DP  RH WIND       PRES   REMARKS
PHILADELPHIA   PTCLDY    22  11  62 SW6       30.26S WCI  14
ALLENTOWN      CLOUDY    23  11  60 W8        30.20S WCI  14
SCRANTON       CLOUDY    17   7  64 SW5       30.15S WCI  10
$$

CTZ002-004>006-009-010-012-RIZ004-006-007-MAZ004-011-015-010900-
SOUTHERN NEW ENGLAND
 IN CT

CITY           SKY/WX    TMP DP  RH WIND       PRES   REMARKS
BRADLEY INTL   MOCLDY    15   4  61 SW8       30.13R WCI   4
HARTFORD       PTCLDY    13   4  67 S8        30.16R WCI   2
DANBURY        PTCLDY     1  -6  72 SW3       30.15S
WTRBRY/OXFORD  PTCLDY     9  -4  56 CALM      30.11S
BRIDGEPORT     PTCLDY    15   6  67 W3        30.18S
MERIDEN        PTCLDY     4  -1  80 CALM      30.17S
NEW HAVEN      PTCLDY    16   4  59 NW6       30.17S WCI   7
CHESTER        FAIR      14   5  67 W5        30.14S WCI   6
GROTON         CLEAR     15   5  64 W12       30.16R WCI   2
WILLIMANTIC    PTCLDY     1  -4  79 CALM      30.13R

 IN RI

CITY           SKY/WX    TMP DP  RH WIND       PRES   REMARKS
PROVIDENCE     CLEAR     12  -1  56 W7        30.12R WCI   1
BLOCK ISLAND   CLEAR     19   9  63 NW16G23   30.11R WCI   5
WESTERLY       CLEAR     13   3  64 VRB6      30.15R WCI   4

 IN MA

CITY           SKY/WX    TMP DP  RH WIND       PRES   REMARKS
BOSTON         CLEAR     14  -4  44 W16       30.08R WCI  -2
WORCESTER      PTCLDY   N/A N/A N/A W10       30.02R
WESTFIELD      PTCLDY     9   1  70 CALM      30.11R
PROVINCETOWN   CLEAR     21   7  53 NW28G37   30.02R WCI   3
NANTUCKET      CLEAR     20   4  50 NW28G33   30.03S WCI   2
$$

ANZ330-335-338-340-345-350-353-355-010900-
COASTAL MARINE OBSERVATIONS


STATION/POSITION TIME  SKY/WX   TEMP    WIND        PRES    VSBY  WAVE
                                AIR SEA DIR/SP/G                  HT/PER
                 (UTC)          (F)     (DEG/KT/KT) (MB)    (MI)  (FT/S)
NY HARB ENTRANCE 0800            26 39  270/ 16/ 17 1022.6          2/12
4S FIRE IS       NOT AVBL
20S FIRE ISLAND  0700               41              1023.2          4/ 5
23SW MTP         0800                                 N/A           4/ 5
HUDSON CANYON    NOT AVBL
EXECUTION ROCKS  0800            23 32  260/ 14/ 16   N/A
WESTERN LI SOUND 0800            22     280/ 14/ 17   N/A           1/ 3
CENTRAL LI SOUND 0700            22 34  300/ 16/ 19   N/A           2/ 4
EASTERN LI SOUND NOT AVBL
ROBBINS REEF     0800            22     260/ 10/ 12 1021.8
$$


>>>>>>>>>>>>>>>>>>>>>>>>>>>> KEY <<<<<<<<<<<<<<<<<<<<<<<<<<<
>                                                          <
>     SKY/WX - SKY CONDITION/PRESENT WEATHER               <
>     TMP    - TEMPERATURE IN FAHRENHEIT                   <
>     DP     - DEWPOINT IN FAHRENHEIT                      <
>     RH     - RELATIVE HUMIDITY IN PERCENT                <
>     WIND   - DIRECTION AND SPEED IN MPH                  <
>     PRES   - MEAN SEA LEVEL PRESSURE IN INCHES OF HG     <
>     WCI    - WIND CHILL INDEX                            <
>     VSB    - VISIBILITY IN MILES                         <
>     HX     - HEAT INDEX                                  <
>     TC     - TEMPERATURE IN CELSIUS                      <
>     VRB    - VARIABLE WIND DIRECTION                     <
>                                                          <
>>>>>>>>>>>>>>>>>>>>>>>>>>>> KEY <<<<<<<<<<<<<<<<<<<<<<<<<<<




USA.gov is the U.S. government's official web portal to all federal, state and local government web resources and services.